FW8724 Weather Reports


time (UTC)temp
C
wind
direction
speed
KPH
gust
KPH
rain 1hr
cm
rain 24hr
cm
rain mn
cm
humidity
%
barometer
mb
20260505051543 6 210 12.9 29.0 0.00 0.43 0.00 81 1006.4
20260505041545 7 213 16.1 29.0 0.00 0.43 0.00 78 1005.8
20260505040044 7 221 16.1 32.2 0.00 0.43 0.00 78 1005.5
20260505034538 7 214 17.7 33.8 0.00 0.43 0.00 77 1005.4
20260505033044 7 257 12.9 33.8 0.00 0.43 0.00 77 1005.4
20260505031539 7 213 14.5 32.2 0.00 0.43 0.00 77 1005.0
20260505030047 7 230 16.1 33.8 0.00 0.43 0.00 77 1004.8
20260505024544 7 206 17.7 37.0 0.00 0.43 0.43 76 1004.6
20260505023045 7 238 17.7 33.8 0.00 0.43 0.43 77 1004.3
20260505021546 7 236 17.7 40.2 0.00 0.43 0.43 77 1004.2
20260505020045 7 228 19.3 38.6 0.00 0.43 0.43 75 1004.0
20260505014546 8 221 19.3 40.2 0.00 0.43 0.43 72 1003.8
20260505013044 8 217 20.9 40.2 0.00 0.43 0.43 71 1003.8
20260505011549 8 197 20.9 38.6 0.00 0.43 0.43 70 1003.4
20260505010042 8 250 20.9 43.5 0.00 0.43 0.43 70 1003.5
20260505004540 7 223 19.3 37.0 0.00 0.53 0.43 71 1003.4
20260505003047 7 229 16.1 30.6 0.00 0.53 0.43 67 1003.4
20260505001546 8 240 20.9 38.6 0.00 0.53 0.43 64 1003.3
20260505000047 8 219 22.5 41.8 0.00 0.53 0.43 65 1003.0
20260504234543 8 288 22.5 45.1 0.00 0.76 0.43 63 1002.6
20260504233042 8 222 22.5 40.2 0.00 0.76 0.43 63 1002.5
20260504231539 6 255 8.0 19.3 0.00 0.76 0.43 70 1002.4
20260504230038 6 267 3.2 12.9 0.00 0.76 0.43 71 1002.4
20260504224548 6 236 1.6 3.2 0.00 0.89 0.43 69 1002.5
20260504223045 7 0 3.2 4.8 0.00 0.89 0.43 68 1002.3
20260504221543 7 225 4.8 11.3 0.00 0.89 0.43 67 1002.3
20260504220110 7 276 6.4 12.9 0.00 0.89 0.43 68 1002.2
20260504214551 7 219 11.3 22.5 0.00 1.02 0.43 66 1001.9
20260504213047 7 254 11.3 19.3 0.00 1.02 0.43 67 1001.7
20260504211545 7 246 9.7 20.9 0.00 1.02 0.43 68 1001.5
20260504210044 7 243 12.9 20.9 0.00 1.02 0.43 68 1001.3
20260504204539 7 232 11.3 24.1 0.00 1.17 0.43 70 1001.0
20260504203041 7 274 12.9 24.1 0.00 1.17 0.43 72 1000.9
20260504201548 7 220 12.9 25.7 0.00 1.17 0.43 75 1000.7
20260504200043 7 221 14.5 25.7 0.00 1.17 0.43 75 1000.5
20260504194541 7 281 11.3 22.5 0.00 1.17 0.43 74 1000.2
20260504193045 7 214 11.3 22.5 0.00 1.17 0.43 77 1000.0
20260504191556 6 221 9.7 22.5 0.00 1.17 0.43 80 999.8
20260504190049 6 249 9.7 22.5 0.00 1.17 0.43 83 999.6
20260504184609 5 198 11.3 24.1 0.00 1.17 0.43 84 999.3
20260504183051 5 237 11.3 20.9 0.00 1.17 0.43 84 999.3
20260504181549 5 238 11.3 22.5 0.00 1.17 0.43 85 999.2
20260504180045 5 270 14.5 25.7 0.00 1.17 0.43 85 999.2
20260504174541 5 247 12.9 20.9 0.00 1.17 0.43 87 999.0
20260504173040 4 201 9.7 24.1 0.00 1.17 0.43 87 998.9
20260504171539 5 288 12.9 27.4 0.00 1.17 0.43 86 998.7
20260504081541 2 284 20.9 27.4 0.10 1.04 0.30 93 977.4